When you browse on this site, cookies collect data to enhance your experience and personalize the content and advertising you see.
Visit our Privacy Policy to learn more. By continuing to use the site, you agree to this use of cookies and data.
  • în România
  • Lista ţărilor
  • Pe 7 zile
  • Temperatura apei
  • Hartă satelitară
  • Meteo pe hartă
  • Widget-uri
  • user-avatar
    Intrare

    Meteo pe oră la Mokrzeszow

    Astăzi, 24 Februarie, Duminică

    Timp Temperatura Precipitaţii Vânt Presiune Umiditate
    00:00 -1°C° 0 mm 1 m/s 753 mmHg 36%
    01:00 -1°C° 0 mm 1 m/s 753 mmHg 35%
    02:00 -1°C° 0 mm 1 m/s 753 mmHg 34%
    03:00 0°C° 0 mm 1 m/s 752 mmHg 34%
    04:00 -1°C° 0 mm 0 m/s 752 mmHg 33%
    05:00 -1°C° 0 mm 0 m/s 752 mmHg 33%
    06:00 -1°C° 0 mm 0 m/s 752 mmHg 32%
    07:00 0°C° 0 mm 0 m/s 752 mmHg 32%
    08:00 +1°C° 0 mm 0 m/s 752 mmHg 32%
    09:00 +2°C° 0 mm 0 m/s 752 mmHg 31%
    10:00 +4°C° 0 mm 1 m/s 752 mmHg 30%
    11:00 +5°C° 0 mm 1 m/s 752 mmHg 30%
    12:00 +7°C° 0 mm 1 m/s 752 mmHg 30%
    13:00 +7°C° 0 mm 2 m/s 752 mmHg 30%
    14:00 +7°C° 0 mm 2 m/s 751 mmHg 36%
    15:00 +6°C° 0 mm 2 m/s 751 mmHg 42%
    16:00 +6°C° 0 mm 2 m/s 751 mmHg 47%
    17:00 +5°C° 0 mm 2 m/s 751 mmHg 50%
    18:00 +3°C° 0 mm 2 m/s 751 mmHg 52%
    19:00 +2°C° 0 mm 2 m/s 751 mmHg 55%
    20:00 +2°C° 0 mm 2 m/s 751 mmHg 56%
    21:00 +2°C° 0 mm 2 m/s 751 mmHg 56%
    22:00 +3°C° 0 mm 1 m/s 751 mmHg 57%
    23:00 +2°C° 0 mm 2 m/s 751 mmHg 58%

    Mâine, 25 Februarie, Luni

    Timp Temperatura Precipitaţii Vânt Presiune Umiditate
    00:00 +2°C° 0 mm 2 m/s 751 mmHg 59%
    01:00 +2°C° 0 mm 2 m/s 751 mmHg 59%
    02:00 +2°C° 0 mm 2 m/s 751 mmHg 60%
    03:00 +2°C° 0 mm 2 m/s 751 mmHg 61%
    04:00 +2°C° 0 mm 2 m/s 750 mmHg 62%
    05:00 +2°C° 0 mm 2 m/s 750 mmHg 64%
    06:00 +2°C° 0 mm 2 m/s 750 mmHg 65%
    07:00 +1°C° 0 mm 2 m/s 750 mmHg 66%
    08:00 +3°C° 0 mm 2 m/s 750 mmHg 61%
    09:00 +4°C° 0 mm 3 m/s 751 mmHg 56%
    10:00 +7°C° 0 mm 3 m/s 751 mmHg 51%
    11:00 +8°C° 0 mm 3 m/s 751 mmHg 51%
    12:00 +7°C° 0 mm 4 m/s 750 mmHg 50%
    13:00 +8°C° 0 mm 4 m/s 750 mmHg 50%
    14:00 +9°C° 0 mm 3 m/s 750 mmHg 54%
    15:00 +9°C° 0 mm 3 m/s 749 mmHg 58%
    16:00 +9°C° 0 mm 3 m/s 749 mmHg 62%
    17:00 +7°C° 0 mm 3 m/s 749 mmHg 66%
    18:00 +5°C° 0 mm 3 m/s 749 mmHg 71%
    19:00 +3°C° 0 mm 3 m/s 749 mmHg 75%
    20:00 +3°C° 0 mm 3 m/s 749 mmHg 76%
    21:00 +2°C° 0 mm 3 m/s 749 mmHg 78%
    22:00 +2°C° 0 mm 3 m/s 749 mmHg 79%
    23:00 +3°C° 0 mm 2 m/s 749 mmHg 79%

    Poimâine, 26 Februarie, Marţi

    Timp Temperatura Precipitaţii Vânt Presiune Umiditate
    00:00 +3°C° 0 mm 2 m/s 749 mmHg 79%
    01:00 +3°C° 0 mm 2 m/s 749 mmHg 80%
    02:00 +3°C° 0 mm 2 m/s 748 mmHg 80%
    03:00 +3°C° 0 mm 2 m/s 748 mmHg 79%
    04:00 +2°C° 0 mm 3 m/s 748 mmHg 79%
    05:00 +2°C° 0 mm 3 m/s 748 mmHg 80%
    06:00 +2°C° 0 mm 3 m/s 747 mmHg 81%
    07:00 +2°C° 0 mm 3 m/s 747 mmHg 82%
    08:00 +3°C° 0 mm 3 m/s 747 mmHg 72%
    09:00 +5°C° 0 mm 4 m/s 747 mmHg 62%
    10:00 +7°C° 0 mm 5 m/s 747 mmHg 52%
    11:00 +8°C° 0 mm 5 m/s 747 mmHg 50%
    12:00 +8°C° 0 mm 5 m/s 747 mmHg 48%
    13:00 +9°C° 0 mm 5 m/s 746 mmHg 46%
    14:00 +9°C° 0 mm 5 m/s 746 mmHg 49%
    15:00 +9°C° 0 mm 5 m/s 746 mmHg 53%
    16:00 +9°C° 0 mm 5 m/s 746 mmHg 56%
    17:00 +8°C° 0 mm 5 m/s 746 mmHg 61%
    18:00 +6°C° 0 mm 4 m/s 746 mmHg 65%
    19:00 +5°C° 0 mm 4 m/s 746 mmHg 69%
    20:00 +5°C° 0 mm 3 m/s 746 mmHg 72%
    21:00 +4°C° 0 mm 3 m/s 746 mmHg 74%
    22:00 +4°C° 0 mm 3 m/s 746 mmHg 76%
    23:00 +4°C° 0 mm 3 m/s 746 mmHg 78%

    27 Februarie, Miercuri

    Timp Temperatura Precipitaţii Vânt Presiune Umiditate
    00:00 +4°C° 0 mm 2 m/s 746 mmHg 80%
    01:00 +4°C° 0 mm 2 m/s 746 mmHg 82%
    02:00 +4°C° 0 mm 2 m/s 746 mmHg 83%
    03:00 +4°C° 0 mm 2 m/s 746 mmHg 84%
    04:00 +4°C° 0 mm 1 m/s 746 mmHg 85%
    05:00 +4°C° 0 mm 1 m/s 746 mmHg 85%
    06:00 +4°C° 0 mm 1 m/s 745 mmHg 84%
    07:00 +4°C° 0 mm 1 m/s 745 mmHg 84%
    08:00 +5°C° 0 mm 2 m/s 745 mmHg 75%
    09:00 +7°C° 0 mm 2 m/s 745 mmHg 66%
    10:00 +9°C° 0 mm 2 m/s 745 mmHg 57%
    11:00 +10°C° 0 mm 2 m/s 745 mmHg 53%
    12:00 +12°C° 0 mm 3 m/s 744 mmHg 48%
    13:00 +13°C° 0 mm 3 m/s 744 mmHg 44%
    14:00 +13°C° 0 mm 3 m/s 743 mmHg 46%
    15:00 +14°C° 0 mm 2 m/s 743 mmHg 48%
    16:00 +14°C° 0 mm 2 m/s 742 mmHg 50%
    17:00 +12°C° 0 mm 2 m/s 742 mmHg 55%
    18:00 +9°C° 0 mm 2 m/s 742 mmHg 60%
    19:00 +8°C° 0 mm 2 m/s 742 mmHg 66%
    20:00 +7°C° 0 mm 2 m/s 741 mmHg 65%
    21:00 +7°C° 0 mm 2 m/s 741 mmHg 65%
    22:00 +7°C° 0 mm 2 m/s 741 mmHg 64%
    23:00 +7°C° 0 mm 2 m/s 741 mmHg 63%

    28 Februarie, Joi

    Timp Temperatura Precipitaţii Vânt Presiune Umiditate
    00:00 +5°C° 0 mm 3 m/s 740 mmHg 62%
    01:00 +5°C° 0 mm 3 m/s 740 mmHg 60%
    02:00 +5°C° 0 mm 3 m/s 739 mmHg 61%
    03:00 +5°C° 0 mm 3 m/s 739 mmHg 61%
    04:00 +5°C° 0 mm 3 m/s 738 mmHg 61%
    05:00 +4°C° 0 mm 3 m/s 738 mmHg 62%
    06:00 +4°C° 0 mm 3 m/s 738 mmHg 63%
    07:00 +4°C° 0 mm 3 m/s 737 mmHg 64%
    08:00 +6°C° 0 mm 4 m/s 737 mmHg 60%
    09:00 +8°C° 0 mm 5 m/s 737 mmHg 57%
    10:00 +9°C° 0 mm 5 m/s 737 mmHg 53%
    11:00 +10°C° 0 mm 6 m/s 737 mmHg 53%
    12:00 +11°C° 0 mm 6 m/s 736 mmHg 54%
    13:00 +12°C° 0 mm 7 m/s 736 mmHg 54%
    14:00 +13°C° 0 mm 6 m/s 736 mmHg 57%
    15:00 +11°C° 0 mm 6 m/s 736 mmHg 60%
    16:00 +11°C° 0 mm 6 m/s 735 mmHg 63%
    17:00 +10°C° 0 mm 5 m/s 736 mmHg 70%
    18:00 +8°C° 0 mm 5 m/s 736 mmHg 78%
    19:00 +7°C° 0 mm 4 m/s 736 mmHg 86%
    20:00 +6°C° 0 mm 4 m/s 736 mmHg 88%
    21:00 +6°C° 0 mm 4 m/s 736 mmHg 90%
    22:00 +5°C° 0 mm 4 m/s 737 mmHg 92%
    23:00 +5°C° 0 mm 4 m/s 737 mmHg 93%

    1 Martie, Vineri

    Timp Temperatura Precipitaţii Vânt Presiune Umiditate
    00:00 +4°C° 0 mm 3 m/s 737 mmHg 94%
    01:00 +4°C° 0 mm 3 m/s 737 mmHg 95%
    02:00 +4°C° 0 mm 3 m/s 737 mmHg 94%
    03:00 +3°C° 0 mm 3 m/s 737 mmHg 94%
    04:00 +3°C° 0 mm 3 m/s 737 mmHg 94%
    05:00 +3°C° 0 mm 3 m/s 737 mmHg 94%
    06:00 +3°C° 0 mm 3 m/s 737 mmHg 93%
    07:00 +2°C° 0 mm 3 m/s 737 mmHg 93%
    08:00 +3°C° 0 mm 3 m/s 738 mmHg 86%
    09:00 +4°C° 0 mm 4 m/s 738 mmHg 79%
    10:00 +5°C° 0 mm 4 m/s 738 mmHg 71%
    11:00 +6°C° 0 mm 4 m/s 738 mmHg 67%
    12:00 +6°C° 0 mm 5 m/s 738 mmHg 63%
    13:00 +7°C° 0 mm 5 m/s 738 mmHg 59%
    14:00 +7°C° 0 mm 4 m/s 738 mmHg 59%
    15:00 +7°C° 0 mm 4 m/s 738 mmHg 59%
    16:00 +7°C° 0 mm 4 m/s 738 mmHg 59%
    17:00 +5°C° 0 mm 3 m/s 738 mmHg 64%
    18:00 +4°C° 0 mm 3 m/s 738 mmHg 69%
    19:00 +4°C° 0 mm 2 m/s 739 mmHg 73%
    20:00 +4°C° 0 mm 2 m/s 739 mmHg 75%
    21:00 +3°C° 0 mm 2 m/s 739 mmHg 76%
    22:00 +3°C° 0 mm 2 m/s 740 mmHg 77%
    23:00 +2°C° 0 mm 2 m/s 740 mmHg 79%
    Arată mai mult